Regional Weather Roundup
Issued by NWS

Home | Current Version | Previous Version | Text Only | Print | Product List | Glossary On
Versions: 1 2 3 4 5 6 7 8 9 10 11 12 13 14 15 16 17 18 19 20 21 22 23 24 25 26 27 28 29 30 31 32 33 34 35 36 37 38 39 40 41 42 43 44 45 46 47 48 49 50
000
ASUS43 KMPX 041701
RWRMN
WEATHER ROUNDUP FOR MINNESOTA
NATIONAL WEATHER SERVICE TWIN CITIES/CHANHASSEN MN
1200 PM CDT MON MAY 04 2015


NOTE: "FAIR" INDICATES FEW OR NO CLOUDS BELOW 12,000 FEET WITH NO
SIGNIFICANT WEATHER AND/OR OBSTRUCTIONS TO VISIBILITY. N/A MEANS
CURRENT SKY AND/OR WEATHER CONDITIONS ARE NOT AVAILABLE.

MNZ060>063-068>070-041800-
   Twin Cities Metro

CITY           SKY/WX    TMP DP  RH WIND       PRES   REMARKS
TWIN CITIES    MOSUNNY   66  33  29 N15G23    30.19S
ST PAUL        SUNNY    N/A N/A N/A N16G22    30.19S
CRYSTAL        SUNNY     68  30  24 N14       30.18S
LAKEVILLE      SUNNY     64  34  32 NE12      30.18S
EDEN PRAIRIE   SUNNY     66  32  28 NE13G22   30.18S
SOUTH ST PAUL  SUNNY     66  28  24 N15       30.18S
LAKE ELMO      FAIR      64  34  32 N10G17    30.19S
$$
MNZ001>005-007-008-013>017-022>024-027-028-041800-
   Northwest Minnesota

CITY           SKY/WX    TMP DP  RH WIND       PRES   REMARKS
BEMIDJI        SUNNY     58  26  30 NW8G17    30.24S
HALLOCK        SUNNY     63  30  29 SW6       30.21S
ROSEAU         SUNNY     61  30  31 W6        30.22F
WARROAD        SUNNY     55  34  44 E8        30.23S
THIEF RVR FALL SUNNY     61  30  31 S6        30.24S
CROOKSTON      MOSUNNY   63  34  34 CALM      30.24R
FOSSTON        SUNNY     63  28  27 W5        30.24S
DETROIT LAKES  PTSUNNY   59  32  36 NW3       30.25R
MOORHEAD       MOSUNNY   61  27  27 W7        30.24R
PARK RAPIDS    PTSUNNY   61  32  33 CALM      30.23R
MAHNOMEN       PTSUNNY   58  33  37 CALM      30.23S
$$
MNZ006-009>011-018-025>026-041800-
   North Central Minnesota

CITY           SKY/WX    TMP DP  RH WIND       PRES   REMARKS
BAUDETTE       SUNNY     57  27  31 NW8       30.23R
FLAG ISLAND    SUNNY     48  39  71 S13       30.22R
INTL FALLS     SUNNY     58  30  34 NE10      30.21R
WASKISH        SUNNY     57  36  44 SW8       30.24R
BIG FORK       SUNNY     61  25  25 N7        30.22F
LONGVILLE      PTSUNNY   61  28  29 NW3       30.24R
GRAND RAPIDS   MOSUNNY   57  25  28 NW8G18    30.23S
CRANE LAKE     SUNNY     55  32  41 N6        30.23R
COOK           SUNNY     57  27  30 NW6       30.22R
WALKER         FAIR      57  30  36 E7        30.23S
$$
MNZ012-019>021-037-041800-
   Northeast Minnesota

CITY           SKY/WX    TMP DP  RH WIND       PRES   REMARKS
DULUTH         MOSUNNY   61  25  25 N13       30.19R
ELY            SUNNY     57  25  28 N7G17     30.19S
HIBBING        SUNNY     60  22  23 N12G18    30.21R
EVELETH        SUNNY     59  27  29 NW8G16    30.22S
DULUTH HARBOR    N/A     61  28  29 NW9       30.20R
TWO HARBORS    MOSUNNY   66  34  30 N10       30.17R
SILVER BAY     MOSUNNY   64  25  22 NW8G17    30.16R
GRAND MARAIS     N/A     45  36  70 SW9       30.16R
G MARAIS ARPRT SUNNY     59  28  31 W9        30.16R
$$
MNZ029>031-032-039>041-046>048-054>057-064-041800-
   West Central Minnesota

CITY           SKY/WX    TMP DP  RH WIND       PRES   REMARKS
FERGUS FALLS   PTSUNNY   63  34  34 N5        30.24R
WHEATON        MOSUNNY   63  30  29 N5        30.23S
MORRIS         MOSUNNY   66  28  24 N8        30.20S
ALEXANDRIA     MOSUNNY   64  30  27 N10G18    30.23R
ELBOW LAKE     FAIR      63  30  29 NW3       30.22R
WADENA         PTSUNNY   61  34  36 N8        30.23R
GLENWOOD       SUNNY     64  28  25 VRB6      30.22S
APPLETON       SUNNY     70  23  17 NE7       30.20R
BENSON         SUNNY     66  19  16 E9        30.20S
ORTONVILLE     SUNNY     66  27  22 NE5       30.21R
MADISON        SUNNY     66  27  22 NE8       30.21R
WILLMAR        FAIR      66  30  26 E10G16    30.21S
$$
MNZ033>034-036-042>043-049>051-058-059-041800-
   Central Minnesota

CITY           SKY/WX    TMP DP  RH WIND       PRES   REMARKS
ST CLOUD       SUNNY     65  31  28 VRB7G18   30.20R
SAUK CENTRE    FAIR      62  29  28 NW12      30.21S
PAYNESVILLE    SUNNY     62  30  30 N10G18    30.21S
AITKIN         PTSUNNY   63  28  27 N12G17    30.21R
PINE RIVER     PTSUNNY   59  36  41 N8        30.26R
BRAINERD       PTSUNNY   61  35  37 N13       30.23R
STAPLES        PTSUNNY   59  30  33 NW6       30.23R
LONG PRAIRIE   FAIR      61  30  31 N9        30.23R
LITTLE FALLS   MOSUNNY   63  30  29 NW7G17    30.22R
LITCHFIELD     SUNNY     66  28  24 NE9G17    30.20S
BUFFALO        SUNNY     65  29  25 N9G16     30.21R
MAPLE LAKE     SUNNY     66  36  32 N9G16     30.21R
$$
MNZ037-044-045-052-053-041800-
   East Central Minnesota

CITY           SKY/WX    TMP DP  RH WIND       PRES   REMARKS
PRINCETON      SUNNY     66  30  26 NW13      30.21R
MORA           MOSUNNY   64  32  29 N9G21     30.22R
CAMBRIDGE      MOSUNNY   66  43  42 N10       30.18S
RUSH CITY      MOSUNNY   64  30  27 N9G17     30.20R
MOOSE LAKE     MOSUNNY   63  32  31 N9G18     30.18S
HINCKLEY       FAIR      64  32  29 N13G18    30.20R
CLOQUET        MOSUNNY   61  25  25 NW13G20   30.20R
MCGREGOR       PTSUNNY   59  32  36 NW9       30.22R
$$
MNZ071>073-080-081-089-090-097-098-041800-
   Southwest Minnesota

CITY           SKY/WX    TMP DP  RH WIND       PRES   REMARKS
MONTEVIDEO     SUNNY     70  28  21 E6        30.21R
GRANITE FALLS  MOSUNNY   68  29  23 N8G16     30.21R
CANBY          MOSUNNY   67  29  24 N5        30.22R
MARSHALL       MOSUNNY   66  27  22 E10G17    30.19S
REDWOOD FALLS  MOSUNNY   69  26  20 N9G18     30.19R
OLIVIA         MOSUNNY   68  30  24 NE10G18   30.19R
WINDOM         SUNNY     66  27  22 NE12G25   30.19R
WORTHINGTON    MOSUNNY   66  30  26 E15G24    30.18S
JACKSON        MOSUNNY   68  23  18 E15G26    30.18S
TRACY          MOSUNNY   68  30  23 E9G22     30.20R
SLAYTON        SUNNY     66  26  21 NE12G21   30.20S
$$
MNZ065>067-074>077-082>085-091>093-041800-
   South Central Minnesota

CITY           SKY/WX    TMP DP  RH WIND       PRES   REMARKS
MANKATO        SUNNY     64  34  32 NE12      30.20R
NEW ULM        SUNNY     66  27  22 E10G17    30.19R
ST JAMES       SUNNY     70  19  14 N14G21    30.19S
FAIRMONT       MOSUNNY   66  28  24 NE15G24   30.17S
GLENCOE        SUNNY     66  33  29 NE12G18   30.19R
FARIBAULT      SUNNY     64  34  32 NE14G20   30.20R
OWATONNA       MOSUNNY   64  32  29 N15G21    30.19R
WASECA         MOSUNNY   63  32  31 N18       30.20R
ALBERT LEA     MOSUNNY   64  37  36 NE15G21   30.18R
$$
MNZ078>079-086>088-094>096-041800-
   Southeast Minnesota

CITY           SKY/WX    TMP DP  RH WIND       PRES   REMARKS
ROCHESTER      MOSUNNY   63  37  38 NE15G22   30.19R
RED WING       SUNNY     66  30  26 NE12G17   30.17R
STANTON        SUNNY     66  32  27 N15       30.17R
DODGE CENTER   MOSUNNY   64  36  34 NE12G20   30.18S
WINONA         MOSUNNY   66  36  32 NE9       30.17R
AUSTIN         MOSUNNY   63  39  42 NE13G20   30.17R
PRESTON        PTSUNNY   62  38  41 NE12G17   30.18R
$$
ABBREVIATIONS USED IN REMARKS
   TC - TEMPERATURES IN CELSIUS
  WCI - WIND CHILL INDEX
   HX - HEAT INDEX
  VSB - VISIBILITY
$$


USA.gov is the U.S. government's official web portal to all federal, state and local government web resources and services.